Baton Rouge, LA

12:12 AM CST on January 22, 2017 (GMT -0600)
Baton Rouge Metro-Ryan

Weather History for KBTR - May, 2013

Change the Weather History Date:

Thursday, May 30, 2013

  Actual Average Record
Temperature  
Mean Temperature 80 °F 79 °F  
Max Temperature 87 °F 89 °F 96 °F (1921)
Min Temperature 73 °F 69 °F 50 °F (1984)
Degree Days  
Heating Degree Days 0 0  
Month to date heating degree days 30 0  
Since 1 July heating degree days 1551 1553  
Cooling Degree Days 15 14  
Month to date cooling degree days 249 320  
Year to date cooling degree days 406 551  
Growing Degree Days 30 (Base 50)    
Moisture  
Dew Point 74 °F    
Average Humidity 83    
Maximum Humidity 100    
Minimum Humidity 65    
Precipitation  
Precipitation 0.11 in 0.17 in 2.86 in (2015)
Month to date precipitation 6.96 4.73  
Year to date precipitation 38.11 24.36  
Snow  
Snow 0.00 in - - ()
Month to date snowfall 0.0  
Since 1 July snowfall 0.0  
Snow Depth 0.00 in    
Sea Level Pressure  
Sea Level Pressure 29.96 in    
Wind  
Wind Speed 9 mph (ESE)    
Max Wind Speed 24 mph    
Max Gust Speed 30 mph    
Visibility 10 miles    
Events Rain , Thunderstorm    
T = Trace of Precipitation, MM = Missing Value Source: NWS Daily Summary

Daily Weather History Graph

Daily Weather History Graph

Search for Another Location

Airport or City:

Trip Planner

Search our weather history database for the weather conditions in past years. The results will help you decide how hot, cold, wet, or windy it might be!

Date:

Astronomy

May. 30, 2013 Rise Set
Actual Time 6:03 AM CDT 8:01 PM CDT
Civil Twilight 5:36 AM CDT 8:28 PM CDT
Nautical Twilight 5:03 AM CDT 9:01 PM CDT
Astronomical Twilight 4:28 AM CDT 9:36 PM CDT
Moon 12:16 AM CDT (5/30) 11:55 AM CDT (5/30)
Length of Visible Light 14h 52m
Length of Day
13h 58m
Waning Gibbous, 62% of the Moon is Illuminated
May 30
Waning Gibbous
May 31
Last Quarter
Jun 8
New
Jun 16
First Quarter
Jun 23
Full

Hourly Weather History & Observations

Time (CDT) Temp. Heat Index Dew Point Humidity Pressure Visibility Wind Dir Wind Speed Gust Speed Precip Events Conditions
12:06 AM 73.4 °F - 73.4 °F 100% 29.98 in 10.0 mi East 3.5 mph - N/A   Mostly Cloudy
12:37 AM 73.4 °F - 73.4 °F 100% 29.98 in 10.0 mi ESE 3.5 mph - N/A   Mostly Cloudy
12:53 AM 73.9 °F - 73.0 °F 97% 29.98 in 10.0 mi Calm Calm - N/A   Scattered Clouds
1:53 AM 73.9 °F - 73.0 °F 97% 29.95 in 10.0 mi ESE 6.9 mph - N/A   Clear
2:53 AM 73.9 °F - 73.0 °F 97% 29.94 in 10.0 mi East 4.6 mph - N/A   Mostly Cloudy
3:02 AM 73.4 °F - 73.4 °F 100% 29.94 in 10.0 mi ESE 4.6 mph - N/A   Mostly Cloudy
3:53 AM 73.0 °F - 73.0 °F 100% 29.94 in 10.0 mi East 3.5 mph - N/A   Mostly Cloudy
4:50 AM 73.4 °F - 73.4 °F 100% 29.93 in 10.0 mi East 6.9 mph - N/A   Scattered Clouds
4:53 AM 73.9 °F - 73.0 °F 97% 29.93 in 10.0 mi East 8.1 mph - N/A   Partly Cloudy
5:32 AM 73.4 °F - 73.4 °F 100% 29.94 in 10.0 mi ESE 4.6 mph - N/A   Partly Cloudy
5:53 AM 73.0 °F - 72.0 °F 96% 29.95 in 10.0 mi East 3.5 mph - N/A   Scattered Clouds
5:58 AM 73.4 °F - 71.6 °F 94% 29.95 in 10.0 mi East 4.6 mph - N/A   Mostly Cloudy
6:38 AM 73.4 °F - 73.4 °F 100% 29.96 in 9.0 mi East 4.6 mph - N/A   Partly Cloudy
6:53 AM 73.9 °F - 73.0 °F 97% 29.96 in 9.0 mi East 6.9 mph - N/A   Scattered Clouds
7:21 AM 73.4 °F - 73.4 °F 100% 29.97 in 10.0 mi East 6.9 mph - N/A   Mostly Cloudy
7:53 AM 75.9 °F - 73.9 °F 94% 29.97 in 10.0 mi ESE 11.5 mph - N/A   Mostly Cloudy
8:11 AM 77.0 °F - 75.2 °F 94% 29.98 in 10.0 mi ESE 8.1 mph - N/A   Overcast
8:31 AM 77.0 °F - 73.4 °F 89% 29.98 in 10.0 mi ESE 11.5 mph - N/A   Mostly Cloudy
8:46 AM 78.8 °F - 73.4 °F 83% 29.98 in 10.0 mi ESE 10.4 mph - N/A   Mostly Cloudy
8:53 AM 79.0 °F - 73.9 °F 84% 29.98 in 10.0 mi ESE 11.5 mph - N/A   Mostly Cloudy
9:53 AM 82.0 °F 87.4 °F 73.0 °F 74% 29.98 in 10.0 mi SE 15.0 mph 24.2 mph N/A   Mostly Cloudy
10:53 AM 84.9 °F 91.4 °F 73.0 °F 67% 29.99 in 10.0 mi ESE 11.5 mph - N/A   Mostly Cloudy
11:53 AM 86.0 °F 93.0 °F 73.0 °F 65% 29.99 in 10.0 mi East 11.5 mph - N/A   Mostly Cloudy
12:53 PM 84.9 °F 90.7 °F 72.0 °F 65% 29.97 in 10.0 mi East 10.4 mph 19.6 mph N/A   Mostly Cloudy
1:39 PM 82.4 °F 87.2 °F 71.6 °F 70% 29.97 in 9.0 mi SE 19.6 mph 25.3 mph 0.00 in Rain , Thunderstorm Thunderstorms and Rain
1:53 PM 79.0 °F - 75.0 °F 88% 29.97 in 9.0 mi ESE 13.8 mph - N/A Rain , Thunderstorm Thunderstorms and Rain
2:00 PM 78.8 °F - 73.4 °F 83% 29.97 in 10.0 mi ESE 15.0 mph 21.9 mph N/A Rain , Thunderstorm Thunderstorms and Rain
2:53 PM 82.9 °F 90.8 °F 75.9 °F 79% 29.96 in 10.0 mi ESE 10.4 mph 17.3 mph N/A Rain , Thunderstorm Thunderstorms and Rain
3:00 PM 84.2 °F 92.3 °F 75.2 °F 74% 29.95 in 10.0 mi East 12.7 mph - N/A   Scattered Clouds
3:53 PM 84.9 °F 91.4 °F 73.0 °F 67% 29.94 in 10.0 mi SE 16.1 mph 26.5 mph N/A   Mostly Cloudy
4:53 PM 82.9 °F 91.8 °F 77.0 °F 82% 29.93 in 10.0 mi East 5.8 mph - 0.04 in   Mostly Cloudy
5:53 PM 82.9 °F 90.2 °F 75.0 °F 77% 29.91 in 10.0 mi ESE 13.8 mph - N/A   Mostly Cloudy
6:53 PM 81.0 °F 86.2 °F 73.9 °F 79% 29.92 in 10.0 mi ESE 10.4 mph - N/A   Scattered Clouds
7:53 PM 79.0 °F - 73.9 °F 84% 29.93 in 10.0 mi ESE 10.4 mph - N/A   Scattered Clouds
8:53 PM 77.0 °F - 73.9 °F 90% 29.94 in 10.0 mi East 10.4 mph - N/A   Clear
9:53 PM 75.9 °F - 73.9 °F 94% 29.97 in 10.0 mi East 6.9 mph - N/A   Clear
10:53 PM 75.9 °F - 73.9 °F 94% 29.99 in 10.0 mi East 4.6 mph - N/A   Mostly Cloudy
11:53 PM 75.0 °F - 73.0 °F 94% 29.98 in 10.0 mi ESE 5.8 mph - N/A   Partly Cloudy